Nenana, AK

1:55 PM AKST on February 19, 2017 (GMT -0900)
Nenana Municipal

Weather History for PANN - November, 2012

Change the Weather History Date:

Monday, November 5, 2012

  Actual Average Record
Temperature  
Mean Temperature 14 °F -  
Max Temperature 46 °F 17 °F 61 °F (1949)
Min Temperature -20 °F 0 °F -20 °F (2012)
Degree Days  
Heating Degree Days 51    
Moisture  
Dew Point -9 °F    
Average Humidity 78    
Maximum Humidity 85    
Minimum Humidity 70    
Precipitation  
Precipitation 0.00 in - - ()
Sea Level Pressure  
Sea Level Pressure 30.08 in    
Wind  
Wind Speed 2 mph (NW)    
Max Wind Speed 12 mph    
Max Gust Speed -    
Visibility 10 miles    
Events      
Averages and records for this station are not official NWS values.
T = Trace of Precipitation, MM = Missing Value Source: NWS Daily Summary

Daily Weather History Graph

Daily Weather History Graph

Search for Another Location

Airport or City:

Trip Planner

Search our weather history database for the weather conditions in past years. The results will help you decide how hot, cold, wet, or windy it might be!

Date:

Astronomy

Nov. 05, 2012 Rise Set
Actual Time 8:57 AM AKST 4:21 PM AKST
Civil Twilight 8:01 AM AKST 5:17 PM AKST
Nautical Twilight 7:02 AM AKST 6:16 PM AKST
Astronomical Twilight 6:05 AM AKST 7:12 PM AKST
Moon 10:15 PM AKST (11/5) 2:22 PM AKST (11/5)
Length of Visible Light 9h 16m
Length of Day
7h 23m
Waning Gibbous, 61% of the Moon is Illuminated
Nov 5
Waning Gibbous
Nov 6
Last Quarter
Nov 13
New
Nov 20
First Quarter
Nov 28
Full

Hourly Weather History & Observations

Time (AKST) Temp. Windchill Dew Point Humidity Pressure Visibility Wind Dir Wind Speed Gust Speed Precip Events Conditions
12:53 AM 5.0 °F -4.1 °F -0.9 °F 76% 29.88 in 10.0 mi WNW 4.6 mph - N/A   Overcast
1:53 AM 3.9 °F -5.3 °F -2.0 °F 76% 29.90 in 10.0 mi NW 4.6 mph - N/A   Overcast
3:53 AM 6.1 °F - -0.9 °F 73% 29.93 in 10.0 mi Calm Calm - N/A   Overcast
4:53 AM 3.9 °F - -0.0 °F 84% 29.94 in 10.0 mi Calm Calm - N/A   Overcast
5:53 AM 3.0 °F - -2.0 °F 80% 29.96 in 10.0 mi Calm Calm - N/A   Overcast
6:53 AM -0.9 °F - -6.0 °F 79% 29.99 in 10.0 mi Calm Calm - N/A   Scattered Clouds
7:53 AM -7.1 °F - -11.0 °F 83% 30.00 in 10.0 mi Calm Calm - N/A   Partly Cloudy
8:53 AM -9.9 °F - -15.0 °F 78% 30.02 in 10.0 mi Calm Calm - N/A   Partly Cloudy
9:53 AM -11.0 °F - -15.0 °F 83% 30.04 in 10.0 mi Calm Calm - N/A   Partly Cloudy
10:53 AM -5.1 °F - -9.9 °F 80% 30.05 in 10.0 mi Calm Calm - N/A   Clear
11:53 AM -2.0 °F - -7.1 °F 79% 30.08 in 10.0 mi Calm Calm - N/A   Clear
12:53 PM 1.0 °F - -5.1 °F 75% 30.09 in 10.0 mi Calm Calm - N/A   Clear
1:53 PM 3.0 °F - -4.0 °F 73% 30.10 in 10.0 mi Calm Calm - N/A   Clear
2:53 PM 3.0 °F - -2.9 °F 76% 30.12 in 10.0 mi Calm Calm - N/A   Clear
3:53 PM -0.9 °F - -6.0 °F 79% 30.13 in 10.0 mi Calm Calm - N/A   Clear
4:53 PM -5.1 °F - -9.9 °F 80% 30.15 in 10.0 mi Calm Calm - N/A   Clear
5:53 PM -9.9 °F - -15.0 °F 78% 30.17 in 10.0 mi Calm Calm - N/A   Clear
6:53 PM -13.0 °F - -18.9 °F 75% 30.19 in 10.0 mi Calm Calm - N/A   Clear
7:53 PM -15.0 °F - -20.9 °F 75% 30.21 in 10.0 mi Calm Calm - N/A   Clear
8:02 PM -16.6 °F - -20.2 °F 84% 30.16 in 10.0 mi Calm Calm - N/A   Partly Cloudy
8:53 PM -17.0 °F - -23.1 °F 74% 30.23 in 10.0 mi Calm Calm - N/A   Clear
9:53 PM -18.0 °F - -25.1 °F 70% 30.25 in 10.0 mi Calm Calm - N/A   Clear
10:53 PM -18.0 °F - -25.1 °F 70% 30.26 in 10.0 mi Calm Calm - N/A   Clear
11:53 PM -20.0 °F - -26.0 °F 74% 30.27 in 10.0 mi Calm Calm - N/A   Clear